Location: *
(52.2090°N, 4.1550°W)
Time: 01:12:50
(UTC+00:00)

Cosmos 2266 Rocket - Pass Details

Date: 19 July 2019
Orbit: 934 x 1008 km, 82.9° (Epoch: 21 August)

Event Time Altitude Azimuth Distance (km) Brightness Sun altitude
Rises 23:21:12 0° 348° (NNW) 3,746 8.9 -15.8°
Reaches altitude 10° 23:23:46 10° 346° (NNW) 2,786 7.8 -15.9°
Maximum altitude 23:30:08 70° 265° (W) 1,054 4.2 -16.1°
Enters shadow 23:34:14 23° 187° (S) 1,969 5.0 -16.3°
